Location: Drummondville
(45.8830°N, 72.4830°W)
Time: 00:02:41
(UTC-05:00)

Vanguard 2 - All Passes

Search period start: 19 November 2017 00:00
Search period end: 29 November 2017 00:00
Orbit: 553 x 2940 km, 32.9° (Epoch: 18 November)

Date Brightness Start Highest point End Pass type
(mag) Time Alt. Az. Time Alt. Az. Time Alt. Az.
19 Nov - 01:41:27 10° WSW 01:51:21 45° S 02:06:05 10° ESE visible
19 Nov - 03:50:12 10° W 04:01:43 36° SSW 04:16:33 10° SE visible
19 Nov - 06:02:33 10° WSW 06:11:51 18° SW 06:21:57 10° S visible
19 Nov - 21:47:21 10° S 21:52:03 18° SE 21:58:17 10° ESE night (unlit)
19 Nov - 23:52:08 10° SW 23:59:49 38° SSE 00:11:47 10° ESE visible
20 Nov - 01:59:25 10° WSW 02:09:19 43° S 02:23:52 10° ESE visible
20 Nov - 04:08:37 10° W 04:19:36 30° SSW 04:33:27 10° SSE visible
20 Nov - 06:23:36 10° WSW 06:29:30 13° SW 06:35:41 10° SSW visible
20 Nov - 22:04:14 10° SSW 22:09:33 23° SSE 22:17:01 10° ESE night (unlit)
21 Nov - 00:09:51 10° WSW 00:17:39 40° S 00:29:52 10° ESE visible
21 Nov - 02:17:27 10° WSW 02:27:16 39° S 02:41:29 10° SE visible
21 Nov - 04:27:18 10° WSW 04:37:27 25° SSW 04:49:53 10° SSE visible
21 Nov - 22:21:30 10° SSW 22:27:09 27° SSE 22:35:28 10° ESE night (unlit)
22 Nov - 00:27:40 10° WSW 00:35:33 40° S 00:47:52 10° ESE visible
22 Nov - 02:35:37 10° WSW 02:45:14 35° SSW 02:58:51 10° SE visible
22 Nov - 04:46:29 10° WSW 04:55:17 19° SSW 05:05:39 10° S visible
22 Nov - 20:36:35 10° SSE 20:37:46 11° SE 20:39:02 10° SE night (unlit)
22 Nov - 22:38:57 10° SW 22:44:50 31° SSE 22:53:44 10° ESE night (unlit)
23 Nov - 00:45:34 10° WSW 00:53:29 39° S 01:05:44 10° ESE visible
23 Nov - 02:53:55 10° WSW 03:03:11 30° SSW 03:15:54 10° SSE visible
23 Nov - 05:06:43 10° WSW 05:13:05 14° SW 05:20:11 10° S visible
23 Nov - 20:52:06 10° S 20:55:14 15° SE 20:59:04 10° ESE night (unlit)
23 Nov - 22:56:35 10° SW 23:02:37 33° SSE 23:11:53 10° ESE night (unlit)
24 Nov - 01:03:33 10° WSW 01:11:26 36° S 01:23:25 10° SE visible
24 Nov - 03:12:29 10° WSW 03:21:07 25° SSW 03:32:32 10° SSE visible
24 Nov - 21:08:55 10° SSW 21:12:47 19° SSE 21:17:52 10° ESE night (unlit)
24 Nov - 23:14:20 10° SW 23:20:27 34° S 23:29:55 10° ESE night (unlit)
25 Nov - 01:21:39 10° WSW 01:29:24 32° S 01:40:54 10° SE visible
25 Nov - 03:31:28 10° WSW 03:39:03 19° SSW 03:48:33 10° S visible
25 Nov - 21:26:10 10° SSW 21:30:26 22° SSE 21:36:17 10° ESE night (unlit)
25 Nov - 23:32:11 10° WSW 23:38:20 33° S 23:47:50 10° ESE night (unlit)
26 Nov - 01:39:54 10° WSW 01:47:22 28° SSW 01:58:05 10° SE visible
26 Nov - 03:51:22 10° WSW 03:56:58 14° SSW 04:03:28 10° S visible
26 Nov - 21:43:39 10° SW 21:48:09 25° SSE 21:54:31 10° ESE night (unlit)
26 Nov - 23:50:08 10° WSW 23:56:15 31° S 00:05:35 10° SE night (unlit)
27 Nov - 01:58:23 10° WSW 02:05:21 23° SSW 02:14:52 10° SSE visible
27 Nov - 19:57:13 10° SSE 19:58:44 11° SSE 20:00:24 10° SE night (unlit)
27 Nov - 22:01:19 10° SW 22:05:56 27° SSE 22:12:36 10° ESE night (unlit)
28 Nov - 00:08:11 10° WSW 00:14:12 28° S 00:23:08 10° SE night (unlit)
28 Nov - 02:17:17 10° WSW 02:23:19 18° SSW 02:31:03 10° SSE visible
28 Nov - 20:13:44 10° S 20:16:22 15° SSE 20:19:27 10° ESE night (unlit)
28 Nov - 22:19:06 10° SW 22:23:47 27° S 22:30:32 10° ESE night (unlit)
